Tracking 19792 objects as of 16-Jul-2019
HD Live streaming from Space Station
objects crossing your sky now

WESTPAC

Track WESTPAC now!
10-day predictions
WESTPAC is classified as:


NORAD ID: 25398
Int'l Code: 1998-043E
Perigee: 822.4 km
Apogee: 823.4 km
Inclination: 98.7 °
Period: 101.2 minutes
Semi major axis: 7193 km
RCS: 0.165 m2 (medium)
Launch date: July 10, 1998
Source: Australia (AUS)
Launch site: TYURATAM MISSILE AND SPACE COMPLEX (TTMTR)
aabbcc
Your satellite tracking list
Your tracking list is empty




NASA's NSSDC Master Catalog

Two Line Element Set (TLE):
1 25398U 98043E   19196.41579094 -.00000043  00000-0  42893-6 0  9996
2 25398  98.6937 134.1891 0000715 358.9562   1.1614 14.22834601 91317
Source of the keplerian elements: AFSPC